Time,TemperatureF,DewpointF,PressureIn,WindDirection,WindDirectionDegrees,WindSpeedMPH,WindSpeedGustMPH,Humidity,HourlyPrecipIn,Conditions,Clouds,dailyrainin,SoftwareType,DateUTC
2013-09-30 00:00:00,56.8,24.0,29.00,SE,132,0.0,0.0,28,0.00,CLR,,0.00,WeatherDisplay:10.37,2013-09-30 04:00:00,
2013-09-30 00:05:00,56.8,24.0,29.00,SE,132,0.0,0.0,28,0.00,CLR,,0.00,WeatherDisplay:10.37,2013-09-30 04:05:00,
2013-09-30 00:10:00,56.8,24.0,29.00,SE,132,0.0,0.0,28,0.00,CLR,,0.00,WeatherDisplay:10.37,2013-09-30 04:10:00,
2013-09-30 00:15:00,57.0,24.2,29.00,SE,132,0.0,0.0,28,0.00,CLR,,0.00,WeatherDisplay:10.37,2013-09-30 04:15:00,
2013-09-30 00:20:00,57.0,24.2,29.00,SE,132,0.0,0.0,28,0.00,CLR,,0.00,WeatherDisplay:10.37,2013-09-30 04:20:00,
2013-09-30 00:30:00,57.2,24.3,29.00,SE,132,0.0,0.0,28,0.00,CLR,,0.00,WeatherDisplay:10.37,2013-09-30 04:30:00,
2013-09-30 00:40:00,57.2,24.3,29.02,SE,131,0.0,0.0,28,0.00,CLR,,0.00,WeatherDisplay:10.37,2013-09-30 04:40:00,
2013-09-30 00:45:00,57.2,24.3,29.03,SE,131,0.0,0.0,28,0.00,CLR,,0.00,WeatherDisplay:10.37,2013-09-30 04:45:00,
2013-09-30 00:50:00,57.2,24.3,29.03,SE,131,0.0,0.0,28,0.00,CLR,,0.00,WeatherDisplay:10.37,2013-09-30 04:50:00,
2013-09-30 01:00:00,57.0,25.0,29.00,SE,131,0.0,0.0,29,0.00,CLR,,0.00,WeatherDisplay:10.37,2013-09-30 05:00:00,
2013-09-30 01:05:00,57.0,25.0,29.00,SE,131,0.0,0.0,29,0.00,CLR,,0.00,WeatherDisplay:10.37,2013-09-30 05:05:00,
2013-09-30 01:10:00,57.0,25.0,29.00,SE,131,0.0,0.0,29,0.00,CLR,,0.00,WeatherDisplay:10.37,2013-09-30 05:10:00,
2013-09-30 01:15:00,57.0,25.0,29.00,SE,131,0.0,0.0,29,0.00,CLR,,0.00,WeatherDisplay:10.37,2013-09-30 05:15:00,
2013-09-30 01:20:00,57.0,25.0,29.00,SE,131,0.0,0.0,29,0.00,CLR,,0.00,WeatherDisplay:10.37,2013-09-30 05:20:00,
2013-09-30 01:25:00,57.0,25.0,29.00,SE,131,0.0,0.0,29,0.00,CLR,,0.00,WeatherDisplay:10.37,2013-09-30 05:25:00,
2013-09-30 01:30:00,57.2,25.2,29.00,SE,131,0.0,0.0,29,0.00,CLR,,0.00,WeatherDisplay:10.37,2013-09-30 05:30:00,
2013-09-30 01:35:00,57.0,25.0,29.00,SE,131,0.0,0.0,29,0.00,CLR,,0.00,WeatherDisplay:10.37,2013-09-30 05:35:00,
2013-09-30 01:40:00,56.8,24.9,29.00,SE,131,0.0,0.0,29,0.00,CLR,,0.00,WeatherDisplay:10.37,2013-09-30 05:40:00,
2013-09-30 01:45:00,56.8,24.9,29.00,SE,131,0.0,0.0,29,0.00,CLR,,0.00,WeatherDisplay:10.37,2013-09-30 05:45:00,
2013-09-30 01:50:00,56.8,24.9,29.00,SE,131,0.0,0.0,29,0.00,CLR,,0.00,WeatherDisplay:10.37,2013-09-30 05:50:00,
2013-09-30 01:55:00,56.7,24.7,29.00,SE,131,0.0,0.0,29,0.00,CLR,,0.00,WeatherDisplay:10.37,2013-09-30 05:55:00,
2013-09-30 02:00:00,56.5,24.6,29.00,SE,131,0.0,0.0,29,0.00,CLR,,0.00,WeatherDisplay:10.37,2013-09-30 06:00:00,
2013-09-30 02:05:00,56.3,24.4,29.00,SE,131,0.0,0.0,29,0.00,CLR,,0.00,WeatherDisplay:10.37,2013-09-30 06:05:00,
2013-09-30 02:10:00,56.3,24.4,29.00,SE,131,0.0,0.0,29,0.00,CLR,,0.00,WeatherDisplay:10.37,2013-09-30 06:10:00,
2013-09-30 02:15:00,56.3,24.4,29.00,SE,131,0.0,0.0,29,0.00,CLR,,0.00,WeatherDisplay:10.37,2013-09-30 06:15:00,
2013-09-30 02:20:00,55.9,24.1,29.00,SE,131,0.0,0.0,29,0.00,CLR,,0.00,WeatherDisplay:10.37,2013-09-30 06:20:00,
2013-09-30 02:30:00,55.4,23.6,29.00,SE,131,0.0,0.0,29,0.00,CLR,,0.00,WeatherDisplay:10.37,2013-09-30 06:30:00,
2013-09-30 02:40:00,55.4,23.6,29.00,SE,131,0.0,0.0,29,0.00,CLR,,0.00,WeatherDisplay:10.37,2013-09-30 06:40:00,
2013-09-30 02:50:00,55.2,24.3,29.00,SE,131,0.0,0.0,30,0.00,CLR,,0.00,WeatherDisplay:10.37,2013-09-30 06:50:00,
2013-09-30 03:00:00,55.0,24.1,29.00,SE,131,0.0,0.0,30,0.00,CLR,,0.00,WeatherDisplay:10.37,2013-09-30 07:00:00,
2013-09-30 03:05:00,54.9,24.0,29.00,SE,131,0.0,0.0,30,0.00,CLR,,0.00,WeatherDisplay:10.37,2013-09-30 07:05:00,
2013-09-30 03:10:00,54.5,23.7,29.00,SE,131,0.0,0.0,30,0.00,CLR,,0.00,WeatherDisplay:10.37,2013-09-30 07:10:00,
2013-09-30 03:15:00,54.5,23.7,29.00,SE,131,0.0,0.0,30,0.00,CLR,,0.00,WeatherDisplay:10.37,2013-09-30 07:15:00,
2013-09-30 03:20:00,54.3,23.5,29.00,SE,131,0.0,0.0,30,0.00,CLR,,0.00,WeatherDisplay:10.37,2013-09-30 07:20:00,
2013-09-30 03:25:00,54.3,23.5,29.00,SE,131,0.0,0.0,30,0.00,CLR,,0.00,WeatherDisplay:10.37,2013-09-30 07:25:00,
2013-09-30 03:30:00,54.1,23.3,29.00,SE,131,0.0,0.0,30,0.00,CLR,,0.00,WeatherDisplay:10.37,2013-09-30 07:30:00,
2013-09-30 03:35:00,54.0,23.2,29.00,SE,131,0.0,0.0,30,0.00,CLR,,0.00,WeatherDisplay:10.37,2013-09-30 07:35:00,
2013-09-30 03:40:00,54.0,23.2,29.00,SE,131,0.0,0.0,30,0.00,CLR,,0.00,WeatherDisplay:10.37,2013-09-30 07:40:00,
2013-09-30 03:45:00,54.0,23.2,29.00,SE,131,0.0,0.0,30,0.00,CLR,,0.00,WeatherDisplay:10.37,2013-09-30 07:45:00,
2013-09-30 03:50:00,54.0,23.2,29.00,SE,131,0.0,0.0,30,0.00,CLR,,0.00,WeatherDisplay:10.37,2013-09-30 07:50:00,
2013-09-30 03:55:00,54.1,23.3,29.00,SE,131,0.0,0.0,30,0.00,CLR,,0.00,WeatherDisplay:10.37,2013-09-30 07:55:00,
2013-09-30 04:00:00,54.1,23.3,29.00,SE,131,0.0,0.0,30,0.00,CLR,,0.00,WeatherDisplay:10.37,2013-09-30 08:00:00,
2013-09-30 04:05:00,54.1,23.3,29.00,SE,131,0.0,0.0,30,0.00,CLR,,0.00,WeatherDisplay:10.37,2013-09-30 08:05:00,
2013-09-30 04:10:00,54.1,23.3,29.00,SE,131,0.0,0.0,30,0.00,CLR,,0.00,WeatherDisplay:10.37,2013-09-30 08:10:00,
2013-09-30 04:15:00,54.0,23.2,29.00,SE,131,0.0,2.0,30,0.00,CLR,,0.00,WeatherDisplay:10.37,2013-09-30 08:15:00,
2013-09-30 04:20:00,54.0,23.2,29.00,SE,134,0.0,2.0,30,0.00,CLR,,0.00,WeatherDisplay:10.37,2013-09-30 08:20:00,
2013-09-30 04:25:00,53.8,23.0,29.00,SE,146,0.0,0.0,30,0.00,CLR,,0.00,WeatherDisplay:10.37,2013-09-30 08:25:00,
2013-09-30 04:30:00,53.8,23.0,29.00,SW,217,0.0,0.0,30,0.00,CLR,,0.00,WeatherDisplay:10.37,2013-09-30 08:30:00,
2013-09-30 04:35:00,53.8,23.0,29.00,West,280,0.0,0.0,30,0.00,CLR,,0.00,WeatherDisplay:10.37,2013-09-30 08:35:00,
2013-09-30 04:40:00,53.8,23.0,29.00,West,279,0.0,0.0,30,0.00,CLR,,0.00,WeatherDisplay:10.37,2013-09-30 08:40:00,
2013-09-30 04:45:00,53.9,23.2,29.00,West,279,0.0,0.0,30,0.00,CLR,,0.00,WeatherDisplay:10.37,2013-09-30 08:45:00,
2013-09-30 04:50:00,54.0,23.2,29.00,West,279,0.0,0.0,30,0.00,CLR,,0.00,WeatherDisplay:10.37,2013-09-30 08:50:00,
2013-09-30 05:00:00,54.1,24.1,29.00,West,279,0.0,0.0,31,0.00,CLR,,0.00,WeatherDisplay:10.37,2013-09-30 09:00:00,
2013-09-30 05:05:00,54.1,24.1,29.00,West,279,0.0,0.0,31,0.00,CLR,,0.00,WeatherDisplay:10.37,2013-09-30 09:05:00,
2013-09-30 05:10:00,54.3,24.3,29.00,West,279,0.0,0.0,31,0.00,CLR,,0.00,WeatherDisplay:10.37,2013-09-30 09:10:00,
2013-09-30 05:15:00,54.3,24.3,29.00,West,279,0.0,0.0,31,0.00,CLR,,0.00,WeatherDisplay:10.37,2013-09-30 09:15:00,
2013-09-30 05:20:00,54.3,24.3,29.00,West,279,0.0,0.0,31,0.00,CLR,,0.00,WeatherDisplay:10.37,2013-09-30 09:20:00,
2013-09-30 05:25:00,54.5,24.4,29.00,West,279,0.0,0.0,31,0.00,CLR,,0.00,WeatherDisplay:10.37,2013-09-30 09:25:00,
2013-09-30 05:30:00,54.5,24.4,29.00,West,279,0.0,0.0,31,0.00,CLR,,0.00,WeatherDisplay:10.37,2013-09-30 09:30:00,
2013-09-30 05:40:00,54.5,24.4,29.00,West,279,0.0,0.0,31,0.00,CLR,,0.00,WeatherDisplay:10.37,2013-09-30 09:40:00,
2013-09-30 05:45:00,54.5,24.4,29.00,West,279,0.0,0.0,31,0.00,CLR,,0.00,WeatherDisplay:10.37,2013-09-30 09:45:00,
2013-09-30 05:55:00,54.7,24.6,29.00,West,279,0.0,0.0,31,0.00,CLR,,0.00,WeatherDisplay:10.37,2013-09-30 09:55:00,
2013-09-30 06:05:00,54.9,24.8,29.00,West,279,0.0,0.0,31,0.00,CLR,,0.00,WeatherDisplay:10.37,2013-09-30 10:05:00,
2013-09-30 06:10:00,54.9,24.8,29.00,West,279,0.0,0.0,31,0.00,CLR,,0.00,WeatherDisplay:10.37,2013-09-30 10:10:00,
2013-09-30 06:15:00,55.0,24.9,29.00,West,279,0.0,0.0,31,0.00,CLR,,0.00,WeatherDisplay:10.37,2013-09-30 10:15:00,
2013-09-30 06:20:00,55.0,24.9,29.00,West,279,0.0,0.0,31,0.00,CLR,,0.00,WeatherDisplay:10.37,2013-09-30 10:20:00,
2013-09-30 06:30:00,55.2,25.8,29.00,West,279,0.0,0.0,32,0.00,CLR,,0.00,WeatherDisplay:10.37,2013-09-30 10:30:00,
2013-09-30 06:35:00,55.4,25.2,29.00,West,279,0.0,0.0,31,0.00,CLR,,0.00,WeatherDisplay:10.37,2013-09-30 10:35:00,
2013-09-30 06:40:00,55.4,25.2,29.00,West,279,0.0,0.0,31,0.00,CLR,,0.00,WeatherDisplay:10.37,2013-09-30 10:40:00,
2013-09-30 06:45:00,55.4,25.2,29.00,West,279,0.0,0.0,31,0.00,CLR,,0.00,WeatherDisplay:10.37,2013-09-30 10:45:00,
2013-09-30 06:50:00,55.5,25.3,29.00,West,279,0.0,0.0,31,0.00,CLR,,0.00,WeatherDisplay:10.37,2013-09-30 10:50:00,
2013-09-30 07:00:00,55.8,26.3,29.00,West,279,0.0,0.0,32,0.00,CLR,,0.00,WeatherDisplay:10.37,2013-09-30 11:00:00,
2013-09-30 07:05:00,55.8,26.3,29.00,West,279,0.0,0.0,32,0.00,CLR,,0.00,WeatherDisplay:10.37,2013-09-30 11:05:00,
2013-09-30 07:15:00,55.8,26.3,29.00,West,279,0.0,0.0,32,0.00,CLR,,0.00,WeatherDisplay:10.37,2013-09-30 11:15:00,
2013-09-30 07:20:00,55.8,26.3,29.00,West,279,0.0,0.0,32,0.00,CLR,,0.00,WeatherDisplay:10.37,2013-09-30 11:20:00,
2013-09-30 07:25:00,55.9,26.5,29.00,West,279,0.0,0.0,32,0.00,CLR,,0.00,WeatherDisplay:10.37,2013-09-30 11:25:00,
2013-09-30 07:30:00,55.9,26.5,29.00,West,279,0.0,0.0,32,0.00,CLR,,0.00,WeatherDisplay:10.37,2013-09-30 11:30:00,
2013-09-30 07:40:00,55.9,26.5,29.00,West,279,0.0,0.0,32,0.00,CLR,,0.00,WeatherDisplay:10.37,2013-09-30 11:40:00,
2013-09-30 07:50:00,55.9,26.5,29.00,West,279,0.0,0.0,32,0.00,CLR,,0.00,WeatherDisplay:10.37,2013-09-30 11:50:00,
2013-09-30 07:55:00,55.9,26.5,29.02,West,279,0.0,0.0,32,0.00,CLR,,0.00,WeatherDisplay:10.37,2013-09-30 11:55:00,
2013-09-30 08:05:00,56.1,26.6,29.03,West,279,0.0,0.0,32,0.00,CLR,,0.00,WeatherDisplay:10.37,2013-09-30 12:05:00,
2013-09-30 08:10:00,56.2,26.7,29.03,West,279,0.0,0.0,32,0.00,CLR,,0.00,WeatherDisplay:10.37,2013-09-30 12:10:00,
2013-09-30 08:15:00,56.3,26.8,29.03,West,279,0.0,0.0,32,0.00,CLR,,0.00,WeatherDisplay:10.37,2013-09-30 12:15:00,
2013-09-30 08:20:00,56.5,26.9,29.03,West,279,0.0,0.0,32,0.00,CLR,,0.00,WeatherDisplay:10.37,2013-09-30 12:20:00,
2013-09-30 08:25:00,56.7,27.1,29.03,West,279,0.0,0.0,32,0.00,CLR,,0.00,WeatherDisplay:10.37,2013-09-30 12:25:00,
2013-09-30 08:30:00,56.7,27.1,29.03,West,279,0.0,0.0,32,0.00,CLR,,0.00,WeatherDisplay:10.37,2013-09-30 12:30:00,
2013-09-30 08:35:00,56.8,27.3,29.03,West,279,0.0,0.0,32,0.00,CLR,,0.00,WeatherDisplay:10.37,2013-09-30 12:35:00,
2013-09-30 08:40:00,56.8,27.3,29.03,West,279,0.0,0.0,32,0.00,CLR,,0.00,WeatherDisplay:10.37,2013-09-30 12:40:00,
2013-09-30 08:45:00,56.8,27.3,29.03,West,279,0.0,0.0,32,0.00,CLR,,0.00,WeatherDisplay:10.37,2013-09-30 12:45:00,
2013-09-30 08:50:00,56.8,27.3,29.03,West,279,0.0,0.0,32,0.00,CLR,,0.00,WeatherDisplay:10.37,2013-09-30 12:50:00,
2013-09-30 08:55:00,56.7,27.1,29.03,West,279,0.0,0.0,32,0.00,CLR,,0.00,WeatherDisplay:10.37,2013-09-30 12:55:00,
2013-09-30 09:00:00,56.8,27.3,29.03,West,279,0.0,0.0,32,0.00,CLR,,0.00,WeatherDisplay:10.37,2013-09-30 13:00:00,
2013-09-30 09:05:00,57.2,27.6,29.03,West,279,0.0,0.0,32,0.00,CLR,,0.00,WeatherDisplay:10.37,2013-09-30 13:05:00,
2013-09-30 09:10:00,57.4,27.7,29.03,West,279,0.0,0.0,32,0.00,CLR,,0.00,WeatherDisplay:10.37,2013-09-30 13:10:00,
2013-09-30 09:20:00,57.4,27.0,29.03,West,279,0.0,0.0,31,0.00,CLR,,0.00,WeatherDisplay:10.37,2013-09-30 13:20:00,
2013-09-30 09:25:00,57.6,27.1,29.03,West,279,0.0,0.0,31,0.00,CLR,,0.00,WeatherDisplay:10.37,2013-09-30 13:25:00,
2013-09-30 09:30:00,57.8,27.3,29.03,West,279,0.0,0.0,31,0.00,CLR,,0.00,WeatherDisplay:10.37,2013-09-30 13:30:00,
2013-09-30 09:35:00,57.7,27.3,29.03,West,279,0.0,0.0,31,0.00,CLR,,0.00,WeatherDisplay:10.37,2013-09-30 13:35:00,
2013-09-30 09:45:00,57.9,27.4,29.03,West,279,0.0,0.0,31,0.00,CLR,,0.00,WeatherDisplay:10.37,2013-09-30 13:45:00,
2013-09-30 09:50:00,58.1,27.6,29.03,West,279,0.0,0.0,31,0.00,CLR,,0.00,WeatherDisplay:10.37,2013-09-30 13:50:00,
2013-09-30 09:55:00,58.3,27.8,29.03,West,279,0.0,0.0,31,0.00,CLR,,0.00,WeatherDisplay:10.37,2013-09-30 13:55:00,
2013-09-30 10:00:00,58.6,28.1,29.03,West,279,0.0,0.0,31,0.00,CLR,,0.00,WeatherDisplay:10.37,2013-09-30 14:00:00,
2013-09-30 10:05:00,59.0,28.4,29.03,West,279,0.0,0.0,31,0.00,CLR,,0.00,WeatherDisplay:10.37,2013-09-30 14:05:00,
2013-09-30 10:10:00,59.5,28.8,29.03,West,279,0.0,0.0,31,0.00,CLR,,0.00,WeatherDisplay:10.37,2013-09-30 14:10:00,
2013-09-30 10:15:00,60.1,29.3,29.03,West,279,0.0,0.0,31,0.00,CLR,,0.00,WeatherDisplay:10.37,2013-09-30 14:15:00,
2013-09-30 10:20:00,60.4,29.6,29.03,West,279,0.0,0.0,31,0.00,CLR,,0.00,WeatherDisplay:10.37,2013-09-30 14:20:00,
2013-09-30 10:25:00,60.6,29.8,29.03,West,279,0.0,2.0,31,0.00,CLR,,0.00,WeatherDisplay:10.37,2013-09-30 14:25:00,
2013-09-30 10:30:00,61.2,29.5,29.03,West,279,0.0,0.0,30,0.00,CLR,,0.00,WeatherDisplay:10.37,2013-09-30 14:30:00,
2013-09-30 10:40:00,61.5,29.8,29.03,West,279,0.0,0.0,30,0.00,CLR,,0.00,WeatherDisplay:10.37,2013-09-30 14:40:00,
2013-09-30 10:45:00,61.9,30.1,29.03,West,279,0.0,0.0,30,0.00,CLR,,0.00,WeatherDisplay:10.37,2013-09-30 14:45:00,
2013-09-30 10:50:00,62.5,30.6,29.03,West,276,0.0,5.0,30,0.00,CLR,,0.00,WeatherDisplay:10.37,2013-09-30 14:50:00,
2013-09-30 11:00:00,63.1,30.3,29.03,WSW,258,0.0,0.0,29,0.00,CLR,,0.00,WeatherDisplay:10.37,2013-09-30 15:00:00,
2013-09-30 11:05:00,63.1,30.3,29.03,WSW,249,0.0,3.0,29,0.00,CLR,,0.00,WeatherDisplay:10.37,2013-09-30 15:05:00,
2013-09-30 11:10:00,63.2,30.4,29.03,WSW,252,0.0,4.0,29,0.00,CLR,,0.00,WeatherDisplay:10.37,2013-09-30 15:10:00,
2013-09-30 11:20:00,64.2,31.3,29.03,WSW,238,0.0,2.0,29,0.00,CLR,,0.00,WeatherDisplay:10.37,2013-09-30 15:20:00,
2013-09-30 11:25:00,64.6,31.6,29.03,SW,236,0.0,5.0,29,0.00,CLR,,0.00,WeatherDisplay:10.37,2013-09-30 15:25:00,
2013-09-30 11:30:00,65.3,31.3,29.03,WSW,239,0.0,0.0,28,0.00,CLR,,0.00,WeatherDisplay:10.37,2013-09-30 15:30:00,
2013-09-30 11:35:00,64.9,31.0,29.03,WSW,242,0.0,3.0,28,0.00,CLR,,0.00,WeatherDisplay:10.37,2013-09-30 15:35:00,
2013-09-30 11:40:00,64.8,30.0,29.03,WSW,258,0.0,3.0,27,0.00,CLR,,0.00,WeatherDisplay:10.37,2013-09-30 15:40:00,
2013-09-30 11:45:00,64.7,29.9,29.03,West,263,3.0,4.0,27,0.00,CLR,,0.00,WeatherDisplay:10.37,2013-09-30 15:45:00,
2013-09-30 11:50:00,64.9,30.1,29.03,West,267,0.0,4.0,27,0.00,CLR,,0.00,WeatherDisplay:10.37,2013-09-30 15:50:00,
2013-09-30 11:55:00,65.2,30.3,29.01,West,263,0.0,0.0,27,0.00,CLR,,0.00,WeatherDisplay:10.37,2013-09-30 15:55:00,
2013-09-30 12:00:00,65.8,30.9,29.00,SW,232,0.0,4.0,27,0.00,CLR,,0.00,WeatherDisplay:10.37,2013-09-30 16:00:00,
2013-09-30 12:05:00,66.6,31.5,29.00,SW,224,0.0,3.0,27,0.00,CLR,,0.00,WeatherDisplay:10.37,2013-09-30 16:05:00,
2013-09-30 12:10:00,67.4,31.3,29.00,WSW,242,0.0,4.0,26,0.00,CLR,,0.00,WeatherDisplay:10.37,2013-09-30 16:10:00,
2013-09-30 12:20:00,68.7,32.4,29.03,WSW,246,0.0,4.0,26,0.00,CLR,,0.00,WeatherDisplay:10.37,2013-09-30 16:20:00,
2013-09-30 12:25:00,68.9,31.6,29.03,WSW,249,0.0,2.0,25,0.00,CLR,,0.00,WeatherDisplay:10.37,2013-09-30 16:25:00,
2013-09-30 12:30:00,69.1,31.8,29.00,WSW,238,2.0,4.0,25,0.00,CLR,,0.00,WeatherDisplay:10.37,2013-09-30 16:30:00,
2013-09-30 12:35:00,68.9,31.6,29.00,SSW,213,0.0,5.0,25,0.00,CLR,,0.00,WeatherDisplay:10.37,2013-09-30 16:35:00,
2013-09-30 12:40:00,68.5,30.3,29.00,SSW,203,1.0,5.0,24,0.00,CLR,,0.00,WeatherDisplay:10.37,2013-09-30 16:40:00,
2013-09-30 12:50:00,69.0,31.7,29.00,WSW,247,0.0,6.0,25,0.00,CLR,,0.00,WeatherDisplay:10.37,2013-09-30 16:50:00,
2013-09-30 12:55:00,68.7,28.3,29.00,WSW,248,3.0,6.0,22,0.00,CLR,,0.00,WeatherDisplay:10.37,2013-09-30 16:55:00,
2013-09-30 13:05:00,68.5,25.8,29.00,WSW,240,0.0,4.0,20,0.00,CLR,,0.00,WeatherDisplay:10.37,2013-09-30 17:05:00,
2013-09-30 13:10:00,68.4,21.8,29.00,WSW,254,0.0,5.0,17,0.00,CLR,,0.00,WeatherDisplay:10.37,2013-09-30 17:10:00,
2013-09-30 13:15:00,68.7,22.1,29.03,West,267,3.0,6.0,17,0.00,CLR,,0.00,WeatherDisplay:10.37,2013-09-30 17:15:00,
2013-09-30 13:20:00,68.9,22.2,29.03,West,281,3.0,6.0,17,0.00,CLR,,0.00,WeatherDisplay:10.37,2013-09-30 17:20:00,
2013-09-30 13:25:00,69.5,22.7,29.01,WNW,282,3.0,6.0,17,0.00,CLR,,0.00,WeatherDisplay:10.37,2013-09-30 17:25:00,
2013-09-30 13:30:00,70.4,23.5,29.00,West,281,3.0,6.0,17,0.00,CLR,,0.00,WeatherDisplay:10.37,2013-09-30 17:30:00,
2013-09-30 13:35:00,70.4,23.5,29.00,West,275,3.0,8.0,17,0.00,CLR,,0.00,WeatherDisplay:10.37,2013-09-30 17:35:00,
2013-09-30 13:40:00,69.6,22.8,29.00,West,281,3.0,8.0,17,0.00,CLR,,0.00,WeatherDisplay:10.37,2013-09-30 17:40:00,
2013-09-30 13:50:00,70.3,23.4,29.00,WSW,248,2.0,6.0,17,0.00,CLR,,0.00,WeatherDisplay:10.37,2013-09-30 17:50:00,
2013-09-30 14:00:00,72.7,23.9,29.00,WSW,251,3.0,6.0,16,0.00,CLR,,0.00,WeatherDisplay:10.37,2013-09-30 18:00:00,
2013-09-30 14:05:00,72.7,23.9,29.00,West,275,0.0,6.0,16,0.00,CLR,,0.00,WeatherDisplay:10.37,2013-09-30 18:05:00,
2013-09-30 14:10:00,72.7,23.9,28.98,West,271,3.0,6.0,16,0.00,CLR,,0.00,WeatherDisplay:10.37,2013-09-30 18:10:00,
2013-09-30 14:15:00,72.7,23.9,28.97,WSW,245,5.0,9.0,16,0.00,CLR,,0.00,WeatherDisplay:10.37,2013-09-30 18:15:00,
2013-09-30 14:20:00,72.2,23.5,28.97,WSW,247,3.0,6.0,16,0.00,CLR,,0.00,WeatherDisplay:10.37,2013-09-30 18:20:00,
2013-09-30 14:30:00,71.5,22.9,29.00,WNW,284,3.0,6.0,16,0.00,CLR,,0.00,WeatherDisplay:10.37,2013-09-30 18:30:00,
2013-09-30 14:40:00,73.8,24.7,28.99,WSW,246,2.0,4.0,16,0.00,CLR,,0.00,WeatherDisplay:10.37,2013-09-30 18:40:00,
2013-09-30 14:50:00,74.1,25.0,28.97,West,277,5.0,6.0,16,0.00,CLR,,0.00,WeatherDisplay:10.37,2013-09-30 18:50:00,
2013-09-30 14:55:00,73.2,24.3,28.97,West,264,3.0,7.0,16,0.00,CLR,,0.00,WeatherDisplay:10.37,2013-09-30 18:55:00,
2013-09-30 15:00:00,72.5,23.7,28.97,WSW,253,3.0,6.0,16,0.00,CLR,,0.00,WeatherDisplay:10.37,2013-09-30 19:00:00,
2013-09-30 15:05:00,72.5,23.7,28.97,WSW,253,2.0,6.0,16,0.00,CLR,,0.00,WeatherDisplay:10.37,2013-09-30 19:05:00,
2013-09-30 15:15:00,74.1,25.0,28.97,SSW,207,2.0,5.0,16,0.00,CLR,,0.00,WeatherDisplay:10.37,2013-09-30 19:15:00,
2013-09-30 15:20:00,74.6,25.4,28.97,SSW,208,0.0,4.0,16,0.00,CLR,,0.00,WeatherDisplay:10.37,2013-09-30 19:20:00,
2013-09-30 15:30:00,75.0,25.7,28.94,West,266,6.0,8.0,16,0.00,CLR,,0.00,WeatherDisplay:10.37,2013-09-30 19:30:00,
2013-09-30 15:35:00,74.6,25.4,28.94,WSW,258,0.0,5.0,16,0.00,CLR,,0.00,WeatherDisplay:10.37,2013-09-30 19:35:00,
2013-09-30 15:45:00,75.0,25.7,28.94,WSW,241,3.0,8.0,16,0.00,CLR,,0.00,WeatherDisplay:10.37,2013-09-30 19:45:00,
2013-09-30 15:50:00,75.2,24.3,28.94,WSW,243,0.0,6.0,15,0.00,CLR,,0.00,WeatherDisplay:10.37,2013-09-30 19:50:00,
2013-09-30 15:55:00,76.2,25.1,28.94,WSW,242,2.0,5.0,15,0.00,CLR,,0.00,WeatherDisplay:10.37,2013-09-30 19:55:00,
2013-09-30 16:00:00,76.8,25.6,28.94,WSW,249,2.0,6.0,15,0.00,CLR,,0.00,WeatherDisplay:10.37,2013-09-30 20:00:00,
2013-09-30 16:05:00,76.0,25.0,28.94,West,271,5.0,8.0,15,0.00,CLR,,0.00,WeatherDisplay:10.37,2013-09-30 20:05:00,
2013-09-30 16:10:00,75.8,24.8,28.94,West,259,1.0,6.0,15,0.00,CLR,,0.00,WeatherDisplay:10.37,2013-09-30 20:10:00,
2013-09-30 16:20:00,75.7,24.8,28.94,West,268,5.0,8.0,15,0.00,CLR,,0.00,WeatherDisplay:10.37,2013-09-30 20:20:00,
2013-09-30 16:25:00,75.2,24.3,28.94,West,260,3.0,6.0,15,0.00,CLR,,0.00,WeatherDisplay:10.37,2013-09-30 20:25:00,
2013-09-30 16:30:00,75.0,25.7,28.94,WSW,252,3.0,6.0,16,0.00,CLR,,0.00,WeatherDisplay:10.37,2013-09-30 20:30:00,
2013-09-30 16:35:00,75.4,24.5,28.94,WSW,256,5.0,7.0,15,0.00,CLR,,0.00,WeatherDisplay:10.37,2013-09-30 20:35:00,
2013-09-30 16:40:00,75.5,24.5,28.94,West,265,5.0,6.0,15,0.00,CLR,,0.00,WeatherDisplay:10.37,2013-09-30 20:40:00,
2013-09-30 16:50:00,75.6,24.7,28.94,WSW,251,3.0,6.0,15,0.00,CLR,,0.00,WeatherDisplay:10.37,2013-09-30 20:50:00,
2013-09-30 17:00:00,76.1,25.1,28.94,WSW,239,3.0,7.0,15,0.00,CLR,,0.00,WeatherDisplay:10.37,2013-09-30 21:00:00,
2013-09-30 17:05:00,76.5,25.3,28.94,WSW,237,3.0,6.0,15,0.00,CLR,,0.00,WeatherDisplay:10.37,2013-09-30 21:05:00,
2013-09-30 17:10:00,76.5,25.3,28.94,SW,231,3.0,6.0,15,0.00,CLR,,0.00,WeatherDisplay:10.37,2013-09-30 21:10:00,
2013-09-30 17:20:00,75.6,24.6,28.94,WSW,237,5.0,6.0,15,0.00,CLR,,0.00,WeatherDisplay:10.37,2013-09-30 21:20:00,
2013-09-30 17:30:00,74.8,25.6,28.94,WSW,240,5.0,7.0,16,0.00,CLR,,0.00,WeatherDisplay:10.37,2013-09-30 21:30:00,
2013-09-30 17:35:00,75.0,25.7,28.94,SW,236,6.0,8.0,16,0.00,CLR,,0.00,WeatherDisplay:10.37,2013-09-30 21:35:00,
2013-09-30 17:40:00,75.0,25.7,28.94,WSW,245,2.0,8.0,16,0.00,CLR,,0.00,WeatherDisplay:10.37,2013-09-30 21:40:00,
2013-09-30 17:50:00,74.3,25.1,28.94,WSW,239,5.0,6.0,16,0.00,CLR,,0.00,WeatherDisplay:10.37,2013-09-30 21:50:00,
2013-09-30 18:00:00,73.1,24.2,28.97,WSW,249,5.0,6.0,16,0.00,CLR,,0.00,WeatherDisplay:10.37,2013-09-30 22:00:00,
2013-09-30 18:05:00,73.6,24.6,28.97,WSW,250,3.0,6.0,16,0.00,CLR,,0.00,WeatherDisplay:10.37,2013-09-30 22:05:00,
2013-09-30 18:15:00,73.0,24.2,28.97,WSW,253,5.0,6.0,16,0.00,CLR,,0.00,WeatherDisplay:10.37,2013-09-30 22:15:00,
2013-09-30 18:20:00,72.4,23.6,28.97,WSW,254,2.0,6.0,16,0.00,CLR,,0.00,WeatherDisplay:10.37,2013-09-30 22:20:00,
2013-09-30 18:25:00,72.1,23.4,28.95,WSW,247,0.0,4.0,16,0.00,CLR,,0.00,WeatherDisplay:10.37,2013-09-30 22:25:00,
2013-09-30 18:30:00,71.8,23.1,28.94,WSW,247,2.0,5.0,16,0.00,CLR,,0.00,WeatherDisplay:10.37,2013-09-30 22:30:00,
2013-09-30 18:40:00,71.6,23.0,28.94,WSW,247,2.0,6.0,16,0.00,CLR,,0.00,WeatherDisplay:10.37,2013-09-30 22:40:00,
2013-09-30 18:50:00,70.9,23.9,28.97,SW,236,0.0,4.0,17,0.00,CLR,,0.00,WeatherDisplay:10.37,2013-09-30 22:50:00,
2013-09-30 19:00:00,70.3,23.4,28.97,WSW,249,0.0,0.0,17,0.00,CLR,,0.00,WeatherDisplay:10.37,2013-09-30 23:00:00,
2013-09-30 19:05:00,70.0,23.1,28.97,WSW,249,0.0,0.0,17,0.00,CLR,,0.00,WeatherDisplay:10.37,2013-09-30 23:05:00,
2013-09-30 19:10:00,69.6,22.8,28.97,WSW,247,0.0,0.0,17,0.00,CLR,,0.00,WeatherDisplay:10.37,2013-09-30 23:10:00,
2013-09-30 19:20:00,69.1,22.4,28.97,South,191,0.0,3.0,17,0.00,CLR,,0.00,WeatherDisplay:10.37,2013-09-30 23:20:00,
2013-09-30 19:30:00,68.5,22.0,28.97,WSW,248,0.0,0.0,17,0.00,CLR,,0.00,WeatherDisplay:10.37,2013-09-30 23:30:00,
2013-09-30 19:35:00,68.4,21.8,28.97,WSW,248,0.0,0.0,17,0.00,CLR,,0.00,WeatherDisplay:10.37,2013-09-30 23:35:00,
2013-09-30 19:40:00,68.0,21.5,28.97,SW,221,0.0,3.0,17,0.00,CLR,,0.00,WeatherDisplay:10.37,2013-09-30 23:40:00,
2013-09-30 19:50:00,67.5,21.1,28.97,SSW,195,0.0,0.0,17,0.00,CLR,,0.00,WeatherDisplay:10.37,2013-09-30 23:50:00,
2013-09-30 20:00:00,66.7,20.5,28.97,SSW,204,0.0,2.0,17,0.00,CLR,,0.00,WeatherDisplay:10.37,2013-10-01 00:00:00,
2013-09-30 20:05:00,66.4,20.2,28.97,SW,217,0.0,0.0,17,0.00,CLR,,0.00,WeatherDisplay:10.37,2013-10-01 00:05:00,
2013-09-30 20:10:00,66.2,20.0,28.97,SW,219,0.0,0.0,17,0.00,CLR,,0.00,WeatherDisplay:10.37,2013-10-01 00:10:00,
2013-09-30 20:20:00,65.8,21.1,28.97,SW,219,0.0,0.0,18,0.00,CLR,,0.00,WeatherDisplay:10.37,2013-10-01 00:20:00,
2013-09-30 20:30:00,65.7,21.0,29.00,SW,219,0.0,0.0,18,0.00,CLR,,0.00,WeatherDisplay:10.37,2013-10-01 00:30:00,
2013-09-30 20:40:00,65.5,20.8,28.98,SW,219,0.0,0.0,18,0.00,CLR,,0.00,WeatherDisplay:10.37,2013-10-01 00:40:00,
2013-09-30 20:45:00,65.4,20.7,28.97,SSW,196,0.0,4.0,18,0.00,CLR,,0.00,WeatherDisplay:10.37,2013-10-01 00:45:00,
2013-09-30 20:50:00,65.3,20.7,28.97,SSE,164,0.0,3.0,18,0.00,CLR,,0.00,WeatherDisplay:10.37,2013-10-01 00:50:00,
2013-09-30 21:00:00,64.9,20.4,29.00,South,184,0.0,0.0,18,0.00,CLR,,0.00,WeatherDisplay:10.37,2013-10-01 01:00:00,
2013-09-30 21:05:00,64.8,20.2,29.00,SSW,213,0.0,2.0,18,0.00,CLR,,0.00,WeatherDisplay:10.37,2013-10-01 01:05:00,
2013-09-30 21:15:00,64.4,19.9,29.00,South,191,0.0,3.0,18,0.00,CLR,,0.00,WeatherDisplay:10.37,2013-10-01 01:15:00,
2013-09-30 21:20:00,64.2,19.8,29.00,SSW,207,0.0,2.0,18,0.00,CLR,,0.00,WeatherDisplay:10.37,2013-10-01 01:20:00,
2013-09-30 21:25:00,64.2,19.8,29.00,WSW,241,0.0,4.0,18,0.00,CLR,,0.00,WeatherDisplay:10.37,2013-10-01 01:25:00,
2013-09-30 21:30:00,64.0,19.6,29.00,SW,233,0.0,2.0,18,0.00,CLR,,0.00,WeatherDisplay:10.37,2013-10-01 01:30:00,
2013-09-30 21:40:00,63.7,19.4,29.00,WSW,255,0.0,0.0,18,0.00,CLR,,0.00,WeatherDisplay:10.37,2013-10-01 01:40:00,
2013-09-30 21:50:00,63.5,19.2,29.00,SW,227,0.0,4.0,18,0.00,CLR,,0.00,WeatherDisplay:10.37,2013-10-01 01:50:00,
2013-09-30 22:00:00,63.1,18.9,29.00,WSW,244,0.0,0.0,18,0.00,CLR,,0.00,WeatherDisplay:10.37,2013-10-01 02:00:00,
2013-09-30 22:05:00,63.0,18.7,29.00,West,264,0.0,0.0,18,0.00,CLR,,0.00,WeatherDisplay:10.37,2013-10-01 02:05:00,
2013-09-30 22:10:00,62.8,18.6,29.00,WSW,242,0.0,3.0,18,0.00,CLR,,0.00,WeatherDisplay:10.37,2013-10-01 02:10:00,
2013-09-30 22:15:00,62.6,18.4,29.00,WSW,241,0.0,3.0,18,0.00,CLR,,0.00,WeatherDisplay:10.37,2013-10-01 02:15:00,
2013-09-30 22:20:00,62.4,19.6,29.00,WSW,251,0.0,0.0,19,0.00,CLR,,0.00,WeatherDisplay:10.37,2013-10-01 02:20:00,
2013-09-30 22:30:00,62.2,21.8,29.00,West,272,0.0,0.0,21,0.00,CLR,,0.00,WeatherDisplay:10.37,2013-10-01 02:30:00,
2013-09-30 22:40:00,62.2,21.8,29.00,SSW,198,0.0,3.0,21,0.00,CLR,,0.00,WeatherDisplay:10.37,2013-10-01 02:40:00,
2013-09-30 22:45:00,62.1,21.6,29.00,South,190,0.0,4.0,21,0.00,CLR,,0.00,WeatherDisplay:10.37,2013-10-01 02:45:00,
2013-09-30 22:50:00,62.1,21.6,29.00,SSW,199,0.0,0.0,21,0.00,CLR,,0.00,WeatherDisplay:10.37,2013-10-01 02:50:00,
2013-09-30 23:00:00,61.9,24.7,29.00,SSW,192,0.0,0.0,24,0.00,CLR,,0.00,WeatherDisplay:10.37,2013-10-01 03:00:00,
2013-09-30 23:05:00,61.9,24.7,29.00,SSW,200,0.0,2.0,24,0.00,CLR,,0.00,WeatherDisplay:10.37,2013-10-01 03:05:00,
2013-09-30 23:10:00,61.9,24.7,29.00,SSW,200,0.0,4.0,24,0.00,CLR,,0.00,WeatherDisplay:10.37,2013-10-01 03:10:00,
2013-09-30 23:20:00,61.7,24.5,29.00,SSW,208,0.0,6.0,24,0.00,CLR,,0.00,WeatherDisplay:10.37,2013-10-01 03:20:00,
2013-09-30 23:30:00,61.5,24.3,29.00,SW,231,0.0,3.0,24,0.00,CLR,,0.00,WeatherDisplay:10.37,2013-10-01 03:30:00,
2013-09-30 23:40:00,61.5,24.3,29.00,South,183,0.0,4.0,24,0.00,CLR,,0.00,WeatherDisplay:10.37,2013-10-01 03:40:00,
2013-09-30 23:45:00,61.3,24.2,29.00,South,184,0.0,3.0,24,0.00,CLR,,0.00,WeatherDisplay:10.37,2013-10-01 03:45:00,
2013-09-30 23:55:00,61.3,25.2,29.00,SW,232,0.0,4.0,25,0.00,CLR,,0.00,WeatherDisplay:10.37,2013-10-01 03:55:00,